FW1140 Weather Reports


time (UTC)temp
F
wind
direction
speed
knots
gust
knots
rain 1hr
in
rain 24hr
in
rain mn
in
humidity
%
barometer
mb
20260902143016 72 78 1.7 3.5 0.00 0.07 0.00 74 1008.8
20260902141503 71 15 0.9 3.5 0.00 0.07 0.00 78 1008.7
20260902140038 71 359 0.9 3.5 0.00 0.07 0.00 81 1008.7
20260902134532 68 354 0.0 0.9 0.00 0.07 0.00 83 1008.8
20260902133101 65 283 0.0 3.5 0.00 0.07 0.00 89 1009.4
20260902131611 63 287 0.0 0.9 0.00 0.07 0.00 90 1009.1
20260902130105 62 277 0.0 1.7 0.00 0.07 0.00 90 1009.4
20260902124541 62 231 0.0 5.2 0.00 0.07 0.00 90 1009.8
20260902123023 61 323 1.7 5.2 0.00 0.07 0.00 90 1009.6
20260902121505 61 297 1.7 6.1 0.00 0.07 0.00 91 1009.4
20260902120038 59 341 0.0 3.5 0.00 0.07 0.00 91 1008.6
20260902114558 59 307 0.9 3.5 0.00 0.07 0.00 92 1008.6
20260902113109 59 294 0.9 2.6 0.00 0.07 0.00 92 1008.5
20260902111540 59 316 0.9 2.6 0.00 0.07 0.00 92 1008.6
20260902110022 59 298 0.0 2.6 0.00 0.07 0.00 92 1008.6
20260902104547 59 300 0.9 2.6 0.00 0.07 0.00 93 1008.5
20260902103003 59 300 0.0 0.9 0.00 0.07 0.00 93 1008.6
20260902101519 59 300 0.0 2.6 0.00 0.07 0.00 93 1008.6
20260902100030 59 300 0.0 0.0 0.00 0.07 0.00 92 1008.7
20260902094517 59 300 0.0 0.0 0.00 0.07 0.00 92 1009.0
20260902093006 61 300 0.0 1.7 0.00 0.07 0.00 91 1009.0
20260902091530 0 0.0 0.0 0.00 0.07 0.00 1009.0
20260902090051 0 0.0 0.0 0.00 0.07 0.00 1008.9
20260902084545 0 0.0 0.0 0.00 0.07 0.00 1009.2
20260902083010 0 0.0 0.0 0.00 0.07 0.00 1009.3
20260902081529 0 0.0 0.0 0.00 0.07 0.00 1009.2
20260902080037 0 0.0 0.0 0.00 0.07 0.00 1009.3
20260902074527 0 0.0 0.0 0.00 0.07 0.00 1008.9
20260902073016 0 0.0 0.0 0.00 0.07 0.00 1009.3
20260902071543 0 0.0 0.0 0.00 0.07 0.00 1009.0
20260902070004 0 0.0 0.0 0.00 0.07 0.00 1008.5
20260902064519 0 0.0 0.0 0.00 0.07 0.00 1008.2
20260902063039 0 0.0 0.0 0.00 0.07 0.00 1008.2
20260902060014 0 0.0 0.0 0.00 0.07 0.00 1008.6
20260902054535 0 0.0 0.0 0.00 0.07 0.00 1008.7
20260902053044 62 310 0.0 1.7 0.00 0.07 0.00 90 1008.8
20260902051537 63 310 0.0 2.6 0.00 0.07 0.00 90 1008.7
20260902050009 64 303 0.0 0.9 0.00 0.07 0.07 88 1008.4
20260902044539 64 303 0.0 3.5 0.00 0.07 0.07 88 1009.1
20260902043109 65 1 0.0 1.7 0.00 0.07 0.07 85 1009.2
20260902041524 64 73 0.0 1.7 0.00 0.07 0.07 86 1009.0
20260902040020 64 319 0.0 0.0 0.00 0.07 0.07 89 1009.1
20260902034539 64 319 0.0 0.9 0.02 0.07 0.07 89 1009.4
20260902033041 64 319 0.9 2.6 0.05 0.07 0.07 88 1009.4
20260902031552 65 142 0.0 2.6 0.05 0.07 0.07 87 1009.5
20260902030052 66 98 0.9 2.6 0.05 0.07 0.07 84 1009.6
20260902024557 66 127 0.0 1.7 0.03 0.05 0.05 90 1009.8
20260902023114 66 260 0.0 1.7 0.00 0.02 0.02 89 1010.0
20260902021518 66 260 0.9 1.7 0.01 0.02 0.02 90 1009.8
20260902020039 67 145 0.0 0.9 0.01 0.02 0.02 90 1009.3
20260902014541 67 145 0.0 0.0 0.02 0.02 0.02 89 1008.9
20260902013005 68 145 0.0 2.6 0.02 0.02 0.02 87 1009.1
20260902011612 68 145 0.9 2.6 0.01 0.01 0.01 87 1009.4
20260902010105 68 129 0.0 1.7 0.01 0.01 0.01 89 1009.2
20260902004501 68 129 0.0 0.9 0.00 0.00 0.00 89 1009.3
20260902003020 69 129 0.0 1.7 0.00 0.00 0.00 87 1009.3
20260902001533 70 129 0.0 0.9 0.00 0.00 0.00 86 1009.4
20260902000043 70 129 0.0 0.0 0.00 0.00 0.00 84 1009.2
20260901234557 71 129 0.0 0.0 0.00 0.00 0.00 81 1009.4
20260901233047 73 129 0.0 0.0 0.00 0.00 0.00 74 1009.6
20260901231513 73 129 0.0 0.0 0.00 0.00 0.00 72 1009.4
20260901230121 74 128 0.0 1.7 0.00 0.00 0.00 73 1009.7
20260901224616 75 1 0.0 0.9 0.00 0.00 0.00 70 1009.7
20260901223032 75 1 0.0 1.7 0.00 0.00 0.00 69 1010.0
20260901221530 76 1 0.0 1.7 0.00 0.00 0.00 63 1010.2
20260901220040 77 1 0.0 1.7 0.00 0.00 0.00 60 1010.4
20260901214529 77 1 0.0 2.6 0.00 0.00 0.00 57 1010.1
20260901213108 78 28 0.9 3.5 0.00 0.00 0.00 57 1010.5
20260901211548 78 2 0.9 3.5 0.00 0.00 0.00 58 1010.5
20260901210035 77 72 0.9 2.6 0.00 0.00 0.00 59 1010.2
20260901204606 78 72 0.0 1.7 0.00 0.00 0.00 55 1010.4
20260901203021 77 72 0.0 2.6 0.00 0.00 0.00 60 1010.5
20260901201534 77 96 0.9 2.6 0.00 0.00 0.00 60 1010.4
20260901200107 78 68 2.6 4.3 0.00 0.00 0.00 60 1009.8
20260901194607 76 75 1.7 4.3 0.00 0.00 0.00 60 1009.7
20260901193036 76 127 0.9 3.5 0.00 0.00 0.00 60 1010.3
20260901191545 78 55 2.6 5.2 0.00 0.00 0.00 56 1010.3
20260901190029 79 72 1.7 5.2 0.00 0.00 0.00 55 1010.4
20260901184523 77 51 2.6 6.1 0.00 0.00 0.00 56 1010.2
20260901183043 77 122 1.7 6.1 0.00 0.00 0.00 59 1010.1
20260901181511 78 13 1.7 5.2 0.00 0.00 0.00 53 1010.3
20260901180039 78 44 1.7 4.3 0.00 0.00 0.00 56 1010.1
20260901174532 78 39 1.7 4.3 0.00 0.00 0.00 53 1010.4
20260901173106 80 19 1.7 5.2 0.00 0.00 0.00 51 1010.4
20260901171554 79 60 1.7 5.2 0.00 0.00 0.00 50 1010.6
20260901170122 77 113 1.7 3.5 0.00 0.00 0.00 52 1011.0
20260901164609 76 111 0.9 3.5 0.00 0.00 0.00 52 1011.2
20260901163008 77 123 0.0 2.6 0.00 0.00 0.00 54 1011.2
20260901161553 73 294 0.0 0.9 0.00 0.00 0.00 56 1011.3
20260901160019 73 294 0.9 3.5 0.00 0.00 0.00 56 1011.1
20260901154516 72 311 0.0 2.6 0.00 0.00 0.00 60 1011.3
20260901153039 72 338 1.7 4.3 0.00 0.00 0.00 60 1011.2
20260901151533 71 293 1.7 5.2 0.00 0.00 0.00 61 1011.2
20260901150012 71 1 1.7 4.3 0.00 0.00 0.00 61 1011.1
20260901144534 70 341 0.9 3.5 0.00 0.00 0.00 63 1011.5